Change the Weather History Date:

Wednesday, June 19, 2013

  Actual Average Record
Temperature  
Mean Temperature 81 °F 80 °F  
Max Temperature 93 °F 91 °F 107 °F (2011)
Min Temperature 68 °F 69 °F 52 °F (1912)
Degree Days  
Heating Degree Days 0 0  
Month to date heating degree days 0 0  
Since 1 June heating degree days 0 0  
Since 1 July heating degree days 2301 2558  
Cooling Degree Days 16 15  
Month to date cooling degree days 289 259  
Year to date cooling degree days 770 656  
Since 1 June cooling degree days 289 259  
Growing Degree Days 31 (Base 50)    
Moisture  
Dew Point 67 °F    
Average Humidity 66    
Maximum Humidity 90    
Minimum Humidity 41    
Precipitation  
Precipitation 0.86 in 0.12 in 1.45 in (1939)
Month to date precipitation 5.04 2.53  
Year to date precipitation 11.26 11.47  
Sea Level Pressure  
Sea Level Pressure 29.91 in    
Wind  
Wind Speed 13 mph (SE)    
Max Wind Speed 44 mph    
Max Gust Speed 54 mph    
Visibility 9 miles    
Events Fog , Rain , Thunderstorm    
T = Trace of Precipitation, MM = Missing Value Source: NWS Daily Summary

Daily Weather History Graph

Daily Weather History Graph

Search for Another Location

Airport or City:

Trip Planner

Search our weather history database for the weather conditions in past years. The results will help you decide how hot, cold, wet, or windy it might be!

Date:

Astronomy

Jun. 19, 2013 Rise Set
Actual Time 6:31 AM CDT 8:48 PM CDT
Civil Twilight 6:03 AM CDT 9:17 PM CDT
Nautical Twilight 5:28 AM CDT 9:51 PM CDT
Astronomical Twilight 4:50 AM CDT 10:29 PM CDT
Moon 4:51 PM CDT (6/19) 3:06 AM CDT (6/19)
Length of Visible Light 15h 13m
Length of Day
14h 16m
Waxing Gibbous, 80% of the Moon is Illuminated
Jun 19
Waxing Gibbous
Jun 23
Full
Jun 29
Last Quarter
Jul 8
New
Jul 15
First Quarter

Hourly Weather History & Observations

Time (CDT) Temp. Heat Index Dew Point Humidity Pressure Visibility Wind Dir Wind Speed Gust Speed Precip Events Conditions
12:52 AM 75.9 °F - 64.0 °F 67% 29.91 in 10.0 mi East 11.5 mph - N/A   Clear
1:52 AM 73.9 °F - 64.9 °F 73% 29.90 in 10.0 mi ESE 9.2 mph - N/A   Clear
2:52 AM 73.0 °F - 66.9 °F 81% 29.88 in 10.0 mi ESE 9.2 mph - N/A   Clear
3:52 AM 73.0 °F - 66.9 °F 81% 29.88 in 10.0 mi ESE 11.5 mph - N/A   Clear
4:52 AM 72.0 °F - 66.9 °F 84% 29.87 in 10.0 mi SE 13.8 mph - N/A   Clear
5:52 AM 72.0 °F - 66.9 °F 84% 29.88 in 10.0 mi SE 12.7 mph - N/A   Clear
6:52 AM 71.1 °F - 68.0 °F 90% 29.89 in 10.0 mi SSE 9.2 mph - N/A   Clear
7:52 AM 73.9 °F - 69.1 °F 85% 29.89 in 10.0 mi SSE 11.5 mph - N/A   Clear
8:52 AM 77.0 °F - 70.0 °F 79% 29.90 in 10.0 mi SSE 11.5 mph - N/A   Clear
9:52 AM 82.0 °F 86.3 °F 71.1 °F 69% 29.90 in 10.0 mi South 12.7 mph - N/A   Clear
10:52 AM 84.9 °F 89.4 °F 70.0 °F 61% 29.89 in 10.0 mi South 15.0 mph - N/A   Clear
11:52 AM 89.1 °F 92.9 °F 68.0 °F 50% 29.90 in 10.0 mi South 17.3 mph - N/A   Clear
12:52 PM 90.0 °F 92.8 °F 66.9 °F 46% 29.89 in 10.0 mi South 9.2 mph 18.4 mph N/A   Clear
1:52 PM 91.9 °F 94.1 °F 64.9 °F 41% 29.88 in 10.0 mi SSE 12.7 mph 19.6 mph N/A   Partly Cloudy
2:52 PM 91.0 °F 93.0 °F 64.9 °F 42% 29.88 in 10.0 mi SE 10.4 mph 18.4 mph N/A   Partly Cloudy
3:34 PM 75.2 °F - 64.4 °F 69% 29.99 in 10.0 mi North 43.7 mph 54.1 mph N/A   Squalls
3:41 PM 73.4 °F - 66.2 °F 78% 30.04 in 10.0 mi North 20.7 mph 54.1 mph N/A Thunderstorm Thunderstorm
3:50 PM 71.6 °F - 68.0 °F 88% 30.01 in 1.5 mi North 39.1 mph 48.3 mph 0.05 in Rain , Thunderstorm Heavy Thunderstorms and Rain
3:52 PM 70.0 °F - 68.0 °F 93% 29.95 in 1.0 mi North 42.6 mph 50.6 mph 0.08 in Rain , Thunderstorm Heavy Thunderstorms and Rain
3:56 PM 69.8 °F - 68.0 °F 94% 30.04 in 0.5 mi North 33.4 mph 50.6 mph 0.10 in Fog , Rain , Thunderstorm Heavy Thunderstorms and Rain
4:19 PM 69.8 °F - 68.0 °F 94% 30.00 in 2.0 mi NE 18.4 mph 27.6 mph 0.78 in Rain , Thunderstorm Heavy Thunderstorms and Rain
4:27 PM 71.6 °F - 68.0 °F 88% 29.99 in 10.0 mi East 10.4 mph 27.6 mph 0.78 in Rain , Thunderstorm Heavy Thunderstorms and Rain
4:34 PM 69.8 °F - 69.8 °F 100% 29.98 in 10.0 mi SSE 18.4 mph 24.2 mph 0.78 in   Mostly Cloudy
4:52 PM 72.0 °F - 70.0 °F 93% 29.92 in 10.0 mi East 8.1 mph - 0.78 in   Partly Cloudy
5:52 PM 78.1 °F - 66.9 °F 68% 29.84 in 10.0 mi SE 16.1 mph 24.2 mph N/A   Clear
6:52 PM 80.1 °F 82.7 °F 68.0 °F 67% 29.82 in 10.0 mi South 15.0 mph 26.5 mph N/A   Clear
7:52 PM 79.0 °F - 64.9 °F 62% 29.81 in 10.0 mi South 12.7 mph - N/A   Clear
8:52 PM 77.0 °F - 66.0 °F 69% 29.84 in 10.0 mi SSE 8.1 mph - N/A   Clear
9:52 PM 78.1 °F - 66.0 °F 66% 29.87 in 10.0 mi SSE 11.5 mph - N/A   Clear
10:52 PM 77.0 °F - 66.0 °F 69% 29.89 in 10.0 mi SSE 9.2 mph - N/A   Clear
11:52 PM 77.0 °F - 66.9 °F 71% 29.89 in 10.0 mi South 5.8 mph - N/A   Clear